When you browse on this site, cookies collect data to enhance your experience and personalize the content and advertising you see.
Visit our Privacy Policy to learn more. By continuing to use the site, you agree to this use of cookies and data.
  • In Czech Republic
  • List of Countries
  • For 7 days
  • Water Temperature
  • Weather Map
  • Weather Widgets
  • user-avatar
    Login

    Hourly Weather Adelaide

    Today, 3 April, Friday

    Time Temperature Precipitation Wind Pressure Humidity
    00:00 +20°C° 0 mm 1 mps 750 mmHg 58%
    01:00 +20°C° 0 mm 1 mps 749 mmHg 59%
    02:00 +20°C° 0 mm 1 mps 749 mmHg 60%
    03:00 +19°C° 0 mm 1 mps 749 mmHg 61%
    04:00 +19°C° 0 mm 1 mps 748 mmHg 62%
    05:00 +19°C° 0 mm 1 mps 748 mmHg 63%
    06:00 +17°C° 0 mm 2 mps 748 mmHg 64%
    07:00 +19°C° 0 mm 2 mps 748 mmHg 61%
    08:00 +20°C° 0 mm 3 mps 748 mmHg 59%
    09:00 +21°C° 0 mm 4 mps 748 mmHg 57%
    10:00 +22°C° 0 mm 4 mps 747 mmHg 53%
    11:00 +23°C° 0 mm 5 mps 747 mmHg 49%
    12:00 +25°C° 0 mm 5 mps 746 mmHg 45%
    13:00 +24°C° 0 mm 6 mps 746 mmHg 46%
    14:00 +23°C° 0 mm 7 mps 745 mmHg 47%
    15:00 +23°C° 0 mm 8 mps 745 mmHg 47%
    16:00 +21°C° 3.3 mm 8 mps 745 mmHg 58%
    17:00 +17°C° 3.3 mm 8 mps 746 mmHg 69%
    18:00 +15°C° 3.3 mm 9 mps 747 mmHg 79%
    19:00 +15°C° 0.4 mm 9 mps 748 mmHg 77%
    20:00 +15°C° 0.4 mm 8 mps 748 mmHg 74%
    21:00 +15°C° 0.4 mm 8 mps 748 mmHg 71%
    22:00 +15°C° 0.8 mm 8 mps 749 mmHg 73%
    23:00 +15°C° 0.8 mm 8 mps 749 mmHg 74%

    Tomorrow, 4 April, Saturday

    Time Temperature Precipitation Wind Pressure Humidity
    00:00 +15°C° 0.8 mm 8 mps 749 mmHg 75%
    01:00 +13°C° 0.4 mm 8 mps 749 mmHg 73%
    02:00 +13°C° 0.4 mm 9 mps 750 mmHg 71%
    03:00 +13°C° 0.4 mm 9 mps 750 mmHg 69%
    04:00 +13°C° 0.1 mm 8 mps 751 mmHg 69%
    05:00 +13°C° 0.1 mm 8 mps 751 mmHg 69%
    06:00 +13°C° 0.1 mm 8 mps 752 mmHg 68%
    07:00 +13°C° 0.2 mm 8 mps 752 mmHg 68%
    08:00 +13°C° 0.2 mm 9 mps 753 mmHg 68%
    09:00 +15°C° 0.2 mm 9 mps 753 mmHg 68%
    10:00 +15°C° 0.1 mm 9 mps 753 mmHg 64%
    11:00 +16°C° 0.1 mm 9 mps 754 mmHg 60%
    12:00 +17°C° 0.1 mm 9 mps 754 mmHg 56%
    13:00 +16°C° 0.1 mm 9 mps 754 mmHg 57%
    14:00 +16°C° 0.1 mm 9 mps 754 mmHg 58%
    15:00 +16°C° 0.1 mm 9 mps 754 mmHg 59%
    16:00 +16°C° 0.1 mm 8 mps 755 mmHg 61%
    17:00 +15°C° 0.1 mm 8 mps 755 mmHg 63%
    18:00 +15°C° 0.1 mm 7 mps 756 mmHg 65%
    19:00 +14°C° 0.1 mm 7 mps 756 mmHg 66%
    20:00 +14°C° 0.1 mm 7 mps 756 mmHg 67%
    21:00 +14°C° 0.1 mm 6 mps 757 mmHg 68%
    22:00 +14°C° 0 mm 6 mps 757 mmHg 68%
    23:00 +13°C° 0 mm 5 mps 757 mmHg 68%

    Day after tomorrow, 5 April, Sunday

    Time Temperature Precipitation Wind Pressure Humidity
    00:00 +13°C° 0 mm 5 mps 757 mmHg 69%
    01:00 +14°C° 0 mm 5 mps 757 mmHg 70%
    02:00 +14°C° 0 mm 6 mps 756 mmHg 71%
    03:00 +14°C° 0 mm 6 mps 756 mmHg 73%
    04:00 +14°C° 0.1 mm 6 mps 757 mmHg 72%
    05:00 +14°C° 0.1 mm 6 mps 757 mmHg 71%
    06:00 +15°C° 0.1 mm 6 mps 758 mmHg 70%
    07:00 +15°C° 0.1 mm 6 mps 758 mmHg 69%
    08:00 +15°C° 0.1 mm 7 mps 758 mmHg 69%
    09:00 +16°C° 0.1 mm 7 mps 758 mmHg 69%
    10:00 +16°C° 0.1 mm 7 mps 758 mmHg 67%
    11:00 +17°C° 0.1 mm 6 mps 758 mmHg 65%
    12:00 +17°C° 0.1 mm 6 mps 758 mmHg 63%
    13:00 +17°C° 0.1 mm 6 mps 758 mmHg 65%
    14:00 +17°C° 0.1 mm 6 mps 758 mmHg 66%
    15:00 +17°C° 0.1 mm 6 mps 758 mmHg 68%
    16:00 +17°C° 0.1 mm 6 mps 758 mmHg 70%
    17:00 +16°C° 0.1 mm 6 mps 759 mmHg 72%
    18:00 +16°C° 0.1 mm 6 mps 759 mmHg 74%
    19:00 +16°C° 0.1 mm 5 mps 759 mmHg 76%
    20:00 +16°C° 0.1 mm 5 mps 760 mmHg 79%
    21:00 +16°C° 0.1 mm 5 mps 760 mmHg 81%
    22:00 +15°C° 0.2 mm 4 mps 760 mmHg 82%
    23:00 +15°C° 0.2 mm 4 mps 760 mmHg 83%

    6 April, Monday

    Time Temperature Precipitation Wind Pressure Humidity
    00:00 +16°C° 0.2 mm 3 mps 760 mmHg 84%
    01:00 +16°C° 0.1 mm 3 mps 760 mmHg 84%
    02:00 +16°C° 0.1 mm 2 mps 760 mmHg 84%
    03:00 +16°C° 0.1 mm 2 mps 760 mmHg 83%
    04:00 +16°C° 0.1 mm 2 mps 761 mmHg 83%
    05:00 +16°C° 0.1 mm 1 mps 761 mmHg 83%
    06:00 +16°C° 0.1 mm 1 mps 762 mmHg 83%
    07:00 +16°C° 0.1 mm 1 mps 762 mmHg 79%
    08:00 +18°C° 0.1 mm 1 mps 763 mmHg 75%
    09:00 +19°C° 0.1 mm 1 mps 763 mmHg 71%
    10:00 +19°C° 0.1 mm 2 mps 763 mmHg 68%
    11:00 +19°C° 0.1 mm 2 mps 763 mmHg 66%
    12:00 +19°C° 0.1 mm 2 mps 763 mmHg 64%
    13:00 +20°C° 0.1 mm 2 mps 763 mmHg 62%
    14:00 +20°C° 0.1 mm 2 mps 762 mmHg 60%
    15:00 +20°C° 0.1 mm 2 mps 762 mmHg 58%
    16:00 +19°C° 0 mm 3 mps 762 mmHg 61%
    17:00 +18°C° 0 mm 4 mps 763 mmHg 64%
    18:00 +17°C° 0 mm 4 mps 763 mmHg 67%
    19:00 +15°C° 0 mm 4 mps 763 mmHg 67%
    20:00 +14°C° 0 mm 4 mps 764 mmHg 68%
    21:00 +14°C° 0 mm 4 mps 764 mmHg 69%
    22:00 +13°C° 0 mm 4 mps 764 mmHg 70%
    23:00 +13°C° 0 mm 4 mps 764 mmHg 72%

    7 April, Tuesday

    Time Temperature Precipitation Wind Pressure Humidity
    00:00 +13°C° 0 mm 4 mps 764 mmHg 73%
    01:00 +13°C° 0 mm 3 mps 764 mmHg 73%
    02:00 +12°C° 0 mm 3 mps 764 mmHg 72%
    03:00 +12°C° 0 mm 3 mps 764 mmHg 72%
    04:00 +13°C° 0 mm 2 mps 764 mmHg 72%
    05:00 +13°C° 0 mm 2 mps 764 mmHg 71%
    06:00 +12°C° 0 mm 2 mps 764 mmHg 71%
    07:00 +14°C° 0 mm 2 mps 765 mmHg 65%
    08:00 +15°C° 0 mm 2 mps 765 mmHg 59%
    09:00 +16°C° 0 mm 2 mps 765 mmHg 53%
    10:00 +17°C° 0 mm 2 mps 765 mmHg 51%
    11:00 +18°C° 0 mm 2 mps 764 mmHg 48%
    12:00 +20°C° 0 mm 2 mps 764 mmHg 45%
    13:00 +19°C° 0 mm 2 mps 764 mmHg 46%
    14:00 +19°C° 0 mm 3 mps 763 mmHg 47%
    15:00 +19°C° 0 mm 3 mps 763 mmHg 48%
    16:00 +18°C° 0 mm 3 mps 763 mmHg 52%
    17:00 +17°C° 0 mm 4 mps 763 mmHg 56%
    18:00 +14°C° 0 mm 4 mps 763 mmHg 60%
    19:00 +14°C° 0 mm 4 mps 764 mmHg 64%
    20:00 +13°C° 0 mm 4 mps 764 mmHg 69%
    21:00 +13°C° 0 mm 4 mps 764 mmHg 74%
    22:00 +13°C° 0 mm 4 mps 764 mmHg 73%
    23:00 +13°C° 0 mm 3 mps 764 mmHg 72%

    8 April, Wednesday

    Time Temperature Precipitation Wind Pressure Humidity
    00:00 +13°C° 0 mm 3 mps 764 mmHg 71%
    01:00 +12°C° 0 mm 3 mps 764 mmHg 71%
    02:00 +12°C° 0 mm 3 mps 764 mmHg 72%
    03:00 +12°C° 0 mm 3 mps 764 mmHg 72%
    04:00 +11°C° 0 mm 3 mps 765 mmHg 73%
    05:00 +11°C° 0 mm 3 mps 765 mmHg 75%
    06:00 +11°C° 0 mm 3 mps 765 mmHg 77%
    07:00 +12°C° 0 mm 3 mps 765 mmHg 71%
    08:00 +14°C° 0 mm 3 mps 766 mmHg 65%
    09:00 +16°C° 0 mm 3 mps 766 mmHg 59%
    10:00 +17°C° 0 mm 3 mps 766 mmHg 54%
    11:00 +18°C° 0 mm 3 mps 766 mmHg 49%
    12:00 +20°C° 0 mm 2 mps 765 mmHg 44%
    13:00 +20°C° 0 mm 3 mps 765 mmHg 44%
    14:00 +20°C° 0 mm 3 mps 765 mmHg 43%
    15:00 +21°C° 0 mm 3 mps 764 mmHg 42%
    16:00 +19°C° 0 mm 4 mps 765 mmHg 49%
    17:00 +18°C° 0 mm 4 mps 765 mmHg 56%
    18:00 +15°C° 0 mm 5 mps 765 mmHg 62%
    19:00 +15°C° 0 mm 5 mps 765 mmHg 67%
    20:00 +14°C° 0 mm 5 mps 766 mmHg 72%
    21:00 +14°C° 0 mm 5 mps 766 mmHg 76%
    22:00 +14°C° 0 mm 4 mps 766 mmHg 75%
    23:00 +14°C° 0 mm 4 mps 766 mmHg 74%
    Show more